DLH455 EDLW-EDDH

Flight info

Callsign DLH455
Flight time 0h 45m
Altitude 23000
Route OSN2U OSN DCT EXPUH M170 BASUM/N0354F240 Y850 PIXUR/N0349F230 Y850 MUBZI M105 RIBSO RIBSO3S
Aircraft A20N/M-SDE2E3FGHIRWXY/LB1

Departure

Time 2026-04-24 23:47
Airport Dortmund Airport (EDLW)

Arrival

Time 2026-04-25 00:33
Airport Hamburg Helmut Schmidt Airport (EDDH)
Time Latitude Longitude Altitude Speed Heading
2026-04-24 23:13 51.51465 7.61121 434 ft 0 kts 144°
2026-04-24 23:39 51.51471 7.61115 415 ft 1 kts 142°
2026-04-24 23:39 51.51477 7.61107 418 ft 1 kts 140°
2026-04-24 23:39 51.51483 7.61099 421 ft 1 kts 137°
2026-04-24 23:39 51.51491 7.61086 430 ft 2 kts 125°
2026-04-24 23:40 51.51498 7.61066 420 ft 2 kts 107°
2026-04-24 23:40 51.51501 7.61043 423 ft 2 kts 88°
2026-04-24 23:40 51.51499 7.61022 422 ft 0 kts 58°
2026-04-24 23:43 51.51499 7.61024 422 ft 1 kts 58°
2026-04-24 23:43 51.51516 7.61054 430 ft 6 kts 31°
2026-04-24 23:43 51.51570 7.61048 430 ft 10 kts 11°
2026-04-24 23:43 51.51621 7.61163 427 ft 13 kts 62°
2026-04-24 23:44 51.51672 7.61310 423 ft 17 kts 61°
2026-04-24 23:44 51.51735 7.61491 422 ft 20 kts 60°
2026-04-24 23:44 51.51803 7.61691 423 ft 16 kts 62°
2026-04-24 23:44 51.51867 7.61870 411 ft 20 kts 62°
2026-04-24 23:45 51.51944 7.62083 408 ft 24 kts 61°
2026-04-24 23:45 51.52031 7.62321 408 ft 26 kts 60°
2026-04-24 23:45 51.52117 7.62576 408 ft 24 kts 61°
2026-04-24 23:45 51.52201 7.62779 410 ft 15 kts 34°
2026-04-24 23:46 51.52295 7.62733 413 ft 15 kts 329°
2026-04-24 23:46 51.52335 7.62650 409 ft 5 kts 245°
2026-04-24 23:46 51.52329 7.62633 408 ft 0 kts 239°
2026-04-24 23:46 51.52253 7.62420 413 ft 60 kts 242°
2026-04-24 23:47 51.51926 7.61485 413 ft 129 kts 240°
2026-04-24 23:47 51.51440 7.60091 770 ft 147 kts 242°
2026-04-24 23:47 51.50957 7.58623 1498 ft 152 kts 243°
2026-04-24 23:47 51.50419 7.57075 2144 ft 166 kts 240°
2026-04-24 23:48 51.49811 7.55422 2835 ft 178 kts 242°
2026-04-24 23:48 51.49163 7.53666 3385 ft 189 kts 241°
2026-04-24 23:48 51.48429 7.51825 3953 ft 203 kts 242°
2026-04-24 23:48 51.47717 7.49729 4325 ft 226 kts 246°
2026-04-24 23:49 51.47086 7.47324 4812 ft 240 kts 262°
2026-04-24 23:49 51.47210 7.44667 5358 ft 245 kts 294°
2026-04-24 23:49 51.48237 7.42480 5871 ft 254 kts 323°
2026-04-24 23:49 51.49853 7.41237 6338 ft 265 kts 345°
2026-04-24 23:50 51.51695 7.40675 6821 ft 275 kts 348°
2026-04-24 23:50 51.53516 7.39705 7438 ft 274 kts 336°
2026-04-24 23:50 51.55321 7.38866 8148 ft 273 kts 356°
2026-04-24 23:50 51.57205 7.39364 8661 ft 281 kts 22°
2026-04-24 23:51 51.58848 7.41105 9181 ft 286 kts 38°
2026-04-24 23:51 51.60324 7.43287 9691 ft 290 kts 42°
2026-04-24 23:51 51.61778 7.45552 10157 ft 293 kts 42°
2026-04-24 23:51 51.63273 7.47818 10609 ft 295 kts 41°
2026-04-24 23:52 51.64811 7.50068 10851 ft 305 kts 40°
2026-04-24 23:52 51.66432 7.52376 10960 ft 317 kts 39°
2026-04-24 23:52 51.68118 7.54743 11057 ft 325 kts 39°
2026-04-24 23:52 51.69857 7.57177 11149 ft 337 kts 39°
2026-04-24 23:53 51.71655 7.59703 11390 ft 346 kts 39°
2026-04-24 23:53 51.73477 7.62265 11946 ft 349 kts 39°
2026-04-24 23:53 51.75320 7.64855 12575 ft 353 kts 39°
2026-04-24 23:53 51.77184 7.67479 13342 ft 358 kts 39°
2026-04-24 23:54 51.79078 7.70143 14209 ft 363 kts 39°
2026-04-24 23:54 51.80989 7.72835 15063 ft 367 kts 39°
2026-04-24 23:54 51.82928 7.75572 15918 ft 372 kts 39°
2026-04-24 23:54 51.84890 7.78344 16721 ft 377 kts 39°
2026-04-24 23:55 51.86873 7.81149 17526 ft 382 kts 39°
2026-04-24 23:55 51.88887 7.84000 18332 ft 386 kts 38°
2026-04-24 23:55 51.90918 7.86879 19042 ft 391 kts 38°
2026-04-24 23:55 51.92979 7.89805 19706 ft 396 kts 38°
2026-04-24 23:56 51.95063 7.92768 20373 ft 401 kts 38°
2026-04-24 23:56 51.97165 7.95761 21041 ft 405 kts 38°
2026-04-24 23:56 51.99297 7.98801 21712 ft 410 kts 38°
2026-04-24 23:56 52.01447 8.01871 22360 ft 414 kts 38°
2026-04-24 23:57 52.03623 8.04981 22961 ft 419 kts 38°
2026-04-24 23:57 52.05815 8.08118 23165 ft 421 kts 38°
2026-04-24 23:57 52.08008 8.11264 23201 ft 420 kts 38°
2026-04-24 23:57 52.10193 8.14401 23201 ft 419 kts 38°
2026-04-24 23:58 52.12379 8.17545 23198 ft 419 kts 38°
2026-04-24 23:58 52.14562 8.20687 23197 ft 419 kts 38°
2026-04-24 23:58 52.16770 8.23866 23198 ft 433 kts 38°
2026-04-24 23:58 52.19101 8.27125 23196 ft 449 kts 34°
2026-04-24 23:59 52.21663 8.29950 23198 ft 442 kts 27°
2026-04-24 23:59 52.24383 8.32322 23192 ft 438 kts 24°
2026-04-24 23:59 52.27013 8.34606 23193 ft 417 kts 25°
2026-04-24 23:59 52.29524 8.36801 23191 ft 406 kts 25°
2026-04-25 00:00 52.32039 8.38994 23192 ft 413 kts 25°
2026-04-25 00:00 52.34572 8.41202 23186 ft 412 kts 25°
2026-04-25 00:00 52.37098 8.43407 23184 ft 411 kts 25°
2026-04-25 00:00 52.39624 8.45617 23194 ft 411 kts 25°
2026-04-25 00:01 52.42148 8.47830 23193 ft 411 kts 25°
2026-04-25 00:01 52.44705 8.50074 23186 ft 411 kts 25°
2026-04-25 00:01 52.47224 8.52288 23180 ft 411 kts 25°
2026-04-25 00:01 52.49741 8.54504 23186 ft 411 kts 25°
2026-04-25 00:02 52.52263 8.56726 23180 ft 411 kts 25°
2026-04-25 00:02 52.54780 8.58947 23182 ft 411 kts 25°
2026-04-25 00:02 52.57297 8.61170 23184 ft 410 kts 25°
2026-04-25 00:02 52.59810 8.63393 23170 ft 410 kts 25°
2026-04-25 00:03 52.62322 8.65616 23177 ft 410 kts 25°
2026-04-25 00:03 52.64833 8.67842 23179 ft 410 kts 25°
2026-04-25 00:03 52.67343 8.70070 23171 ft 410 kts 25°
2026-04-25 00:03 52.69858 8.72304 23171 ft 410 kts 25°
2026-04-25 00:04 52.72365 8.74535 23168 ft 409 kts 25°
2026-04-25 00:04 52.74890 8.76691 23171 ft 407 kts 20°
2026-04-25 00:04 52.77557 8.78158 23173 ft 403 kts
2026-04-25 00:04 52.80314 8.78796 23178 ft 398 kts 359°
2026-04-25 00:05 52.83077 8.78796 23173 ft 397 kts 356°
2026-04-25 00:05 52.84901 8.78777 23179 ft 397 kts 356°
2026-04-25 00:05 52.87664 8.78760 23179 ft 396 kts 356°
2026-04-25 00:05 52.90421 8.78746 23181 ft 396 kts 356°
2026-04-25 00:06 52.93180 8.78730 23179 ft 396 kts 356°
2026-04-25 00:06 52.95938 8.78752 23184 ft 398 kts 359°
2026-04-25 00:06 52.98696 8.79235 23186 ft 400 kts
2026-04-25 00:06 53.01457 8.79883 23184 ft 400 kts
2026-04-25 00:07 53.04214 8.80508 23184 ft 400 kts
2026-04-25 00:07 53.06972 8.81129 23183 ft 400 kts
2026-04-25 00:07 53.09726 8.81750 23183 ft 400 kts
2026-04-25 00:07 53.12480 8.82374 23187 ft 399 kts
2026-04-25 00:08 53.15234 8.83000 23183 ft 400 kts
2026-04-25 00:08 53.17990 8.83628 23179 ft 400 kts
2026-04-25 00:08 53.20746 8.84258 23178 ft 400 kts
2026-04-25 00:08 53.23504 8.84890 23173 ft 400 kts
2026-04-25 00:09 53.26260 8.85523 23169 ft 400 kts
2026-04-25 00:09 53.29016 8.86156 23163 ft 400 kts
2026-04-25 00:09 53.31775 8.86791 23161 ft 400 kts
2026-04-25 00:09 53.34513 8.87698 23158 ft 403 kts 11°
2026-04-25 00:10 53.37180 8.89210 23157 ft 407 kts 19°
2026-04-25 00:10 53.39787 8.91085 23149 ft 407 kts 19°
2026-04-25 00:10 53.42395 8.92935 23148 ft 407 kts 19°
2026-04-25 00:10 53.45007 8.94780 23148 ft 408 kts 19°
2026-04-25 00:11 53.47623 8.96631 23145 ft 408 kts 19°
2026-04-25 00:11 53.50229 8.98482 23048 ft 406 kts 19°
2026-04-25 00:11 53.52814 9.00376 22570 ft 407 kts 22°
2026-04-25 00:11 53.55291 9.02764 21753 ft 414 kts 30°
2026-04-25 00:12 53.57659 9.05599 20790 ft 419 kts 32°
2026-04-25 00:12 53.60008 9.08423 20387 ft 408 kts 32°
2026-04-25 00:12 53.62274 9.11147 20163 ft 393 kts 31°
2026-04-25 00:12 53.64475 9.13789 19652 ft 387 kts 31°
2026-04-25 00:13 53.66657 9.16403 19088 ft 383 kts 31°
2026-04-25 00:13 53.68815 9.18992 18541 ft 379 kts 31°
2026-04-25 00:13 53.70951 9.21560 17940 ft 375 kts 31°
2026-04-25 00:13 53.73065 9.24104 17309 ft 372 kts 31°
2026-04-25 00:14 53.75159 9.26628 16712 ft 368 kts 31°
2026-04-25 00:14 53.77233 9.29132 16125 ft 365 kts 31°
2026-04-25 00:14 53.79253 9.31704 15532 ft 365 kts 39°
2026-04-25 00:14 53.80803 9.35131 14965 ft 372 kts 59°
2026-04-25 00:15 53.81600 9.39310 14408 ft 377 kts 79°
2026-04-25 00:15 53.81794 9.43721 13842 ft 376 kts 85°
2026-04-25 00:15 53.81841 9.48134 13256 ft 373 kts 86°
2026-04-25 00:15 53.81880 9.52513 12701 ft 370 kts 86°
2026-04-25 00:16 53.81944 9.56833 12132 ft 366 kts 85°
2026-04-25 00:16 53.82020 9.61130 11597 ft 364 kts 88°
2026-04-25 00:16 53.81525 9.65294 11237 ft 363 kts 111°
2026-04-25 00:16 53.80151 9.68913 11125 ft 369 kts 134°
2026-04-25 00:17 53.78124 9.71529 11109 ft 367 kts 152°
2026-04-25 00:17 53.75838 9.73417 11108 ft 365 kts 158°
2026-04-25 00:17 53.73516 9.75138 11105 ft 365 kts 158°
2026-04-25 00:17 53.71200 9.76917 11106 ft 365 kts 157°
2026-04-25 00:18 53.68910 9.78779 11104 ft 366 kts 156°
2026-04-25 00:18 53.66633 9.80706 11103 ft 366 kts 155°
2026-04-25 00:18 53.64344 9.82681 11106 ft 383 kts 155°
2026-04-25 00:18 53.61866 9.84827 11103 ft 416 kts 154°
2026-04-25 00:19 53.59198 9.87141 11132 ft 445 kts 154°
2026-04-25 00:19 53.56450 9.89526 11129 ft 434 kts 154°
2026-04-25 00:19 53.53853 9.91784 11126 ft 407 kts 154°
2026-04-25 00:19 53.51336 9.93966 11129 ft 408 kts 154°
2026-04-25 00:20 53.48770 9.96181 11128 ft 410 kts 154°
2026-04-25 00:20 53.46302 9.98312 11126 ft 387 kts 154°
2026-04-25 00:20 53.43949 10.00342 11124 ft 365 kts 155°
2026-04-25 00:20 53.41698 10.02277 11128 ft 366 kts 155°
2026-04-25 00:21 53.39456 10.04198 11123 ft 366 kts 155°
2026-04-25 00:21 53.37190 10.06139 11124 ft 366 kts 155°
2026-04-25 00:21 53.34923 10.08078 11046 ft 364 kts 155°
2026-04-25 00:21 53.32676 10.10000 10705 ft 362 kts 155°
2026-04-25 00:22 53.30450 10.11901 10410 ft 354 kts 155°
2026-04-25 00:22 53.28309 10.13757 10273 ft 340 kts 153°
2026-04-25 00:22 53.26413 10.15986 10100 ft 327 kts 134°
2026-04-25 00:22 53.25161 10.18987 9918 ft 307 kts 112°
2026-04-25 00:23 53.24607 10.22272 9742 ft 284 kts 92°
2026-04-25 00:23 53.24670 10.25509 9382 ft 269 kts 73°
2026-04-25 00:23 53.25266 10.28400 8873 ft 260 kts 56°
2026-04-25 00:23 53.26282 10.30771 8376 ft 251 kts 39°
2026-04-25 00:24 53.27636 10.32572 7890 ft 242 kts 24°
2026-04-25 00:24 53.29138 10.33648 7426 ft 235 kts
2026-04-25 00:24 53.30783 10.34050 6771 ft 240 kts 355°
2026-04-25 00:24 53.32461 10.33691 6119 ft 247 kts 341°
2026-04-25 00:25 53.34041 10.32558 5641 ft 247 kts 327°
2026-04-25 00:25 53.35349 10.30810 5285 ft 244 kts 313°
2026-04-25 00:25 53.36338 10.28516 5141 ft 247 kts 300°
2026-04-25 00:25 53.36940 10.25801 5108 ft 251 kts 285°
2026-04-25 00:26 53.37352 10.23012 5112 ft 248 kts 297°
2026-04-25 00:26 53.38394 10.20780 5118 ft 246 kts 322°
2026-04-25 00:26 53.39884 10.19392 5089 ft 244 kts 332°
2026-04-25 00:26 53.41403 10.18122 4829 ft 243 kts 332°
2026-04-25 00:27 53.42910 10.16855 4508 ft 240 kts 332°
2026-04-25 00:27 53.44356 10.15632 4366 ft 224 kts 332°
2026-04-25 00:27 53.45694 10.14497 4187 ft 210 kts 332°
2026-04-25 00:27 53.46984 10.13396 3931 ft 207 kts 332°
2026-04-25 00:28 53.48255 10.12309 3686 ft 204 kts 332°
2026-04-25 00:28 53.49521 10.11224 3397 ft 204 kts 332°
2026-04-25 00:28 53.50781 10.10144 3117 ft 202 kts 332°
2026-04-25 00:28 53.52021 10.09088 2940 ft 197 kts 332°
2026-04-25 00:29 53.53238 10.08097 2688 ft 192 kts 333°
2026-04-25 00:29 53.54422 10.07140 2469 ft 184 kts 332°
2026-04-25 00:29 53.55508 10.06193 2232 ft 166 kts 330°
2026-04-25 00:29 53.56460 10.05372 2002 ft 143 kts 327°
2026-04-25 00:30 53.57265 10.04605 1743 ft 124 kts 326°
2026-04-25 00:30 53.58017 10.03956 1352 ft 120 kts 329°
2026-04-25 00:30 53.58749 10.03318 1031 ft 116 kts 327°
2026-04-25 00:30 53.59463 10.02697 806 ft 115 kts 328°
2026-04-25 00:31 53.60165 10.02091 663 ft 111 kts 326°
2026-04-25 00:31 53.60858 10.01479 569 ft 113 kts 327°
2026-04-25 00:31 53.61573 10.00859 391 ft 117 kts 328°
2026-04-25 00:31 53.62301 10.00235 211 ft 118 kts 327°
2026-04-25 00:32 53.63029 9.99602 50 ft 115 kts 327°
2026-04-25 00:32 53.63641 9.99051 47 ft 85 kts 334°
2026-04-25 00:32 53.64096 9.98671 50 ft 63 kts 335°
2026-04-25 00:32 53.64451 9.98396 56 ft 50 kts 346°
2026-04-25 00:33 53.64677 9.98396 54 ft 14 kts 25°
2026-04-25 00:33 53.64707 9.98469 51 ft 1 kts 87°
2026-04-25 00:33 53.64696 9.98503 52 ft 5 kts 133°
2026-04-25 00:33 53.64670 9.98529 49 ft 0 kts 155°
2026-04-25 00:34 53.64658 9.98538 52 ft 5 kts 155°
2026-04-25 00:35 53.64602 9.98583 51 ft 13 kts 153°
2026-04-25 00:35 53.64504 9.98668 51 ft 18 kts 152°
2026-04-25 00:35 53.64380 9.98776 50 ft 21 kts 153°
2026-04-25 00:35 53.64241 9.98896 49 ft 24 kts 153°
2026-04-25 00:36 53.64081 9.99027 48 ft 27 kts 151°
2026-04-25 00:36 53.63911 9.99179 48 ft 27 kts 153°
2026-04-25 00:36 53.63757 9.99373 48 ft 29 kts 128°
2026-04-25 00:36 53.63637 9.99641 49 ft 29 kts 124°
2026-04-25 00:37 53.63531 9.99888 50 ft 27 kts 125°
2026-04-25 00:37 53.63431 10.00122 48 ft 15 kts 125°
2026-04-25 00:37 53.63325 10.00166 48 ft 17 kts 177°
2026-04-25 00:37 53.63237 10.00150 45 ft 10 kts 220°
2026-04-25 00:38 53.63249 10.00089 47 ft 4 kts 325°
2026-04-25 00:38 53.63264 10.00066 48 ft 0 kts 320°